User: anonymous   Login
Location: Unspecified
(0.0000°N, 0.0000°E)
Time: 16:37:45
(UTC+00:00)
Language:

COSMOS 2481 - Orbit

View from above orbital plane
View from above orbital plane
View from above satellite
View from above satellite

Ground track
Ground track

The orbit data is extracted from the following two-line orbital elements,

1 38733U 12041A   17204.90682024 +.00000034 +00000-0 +17563-3 0  9999
2 38733 082.4767 301.4912 0017462 316.2152 043.7539 12.42371373226228
Epoch (UTC): 23 July 2017 21:45:49
Eccentricity: 0.0017462
inclination: 82.4767°
perigee height: 1483 km
apogee height: 1510 km
right ascension of ascending node: 301.4912°
argument of perigee: 316.2152°
revolutions per day: 12.42371373
mean anomaly at epoch: 43.7539°
orbit number at epoch: 22622

The dashed part of the orbit path shows where the satellite is in the earth's shadow,  

DLR